Location: Unnamed
(51.6619°N, 39.1980°E)
Time: 02:33:40
(UTC+03:00)

ISS - Visible Passes

Search period start: 11 October 2024 00:00
Search period end: 21 October 2024 00:00
Orbit: 412 x 423 km, 51.6° (Epoch: 10 October)

Date Brightness Start Highest point End Pass type
(mag) Time Alt. Az. Time Alt. Az. Time Alt. Az.
18 Oct -1.1 05:50:13 10° S 05:52:34 18° SE 05:54:55 10° E visible
19 Oct -0.9 05:02:46 10° SSE 05:04:12 12° SE 05:05:38 10° ESE visible
20 Oct -2.3 05:48:42 10° SW 05:51:45 33° SSE 05:54:48 10° E visible
